{"data":{"norad_id":67989,"epoch":"2026-09-19T15:28:35.795136Z","epoch_age_seconds":133428,"freshness":"FRESH","line1":"1 67989U 26039D   26262.64485874  .00010604  00000+0  39418-3 0  9991","line2":"2 67989  42.9995  33.8094 0001887 282.9647  77.0994 15.27589848 31364","mean_motion":15.27589848,"eccentricity":0.0001887,"inclination_deg":42.9995,"raan_deg":33.8094,"arg_perigee_deg":282.9647,"mean_anomaly_deg":77.0994,"bstar":0.00039418,"rev_number":3136,"period_min":94.266140998863,"perigee_km":481.72490749139,"apogee_km":484.31430799516,"semimajor_km":6861.1566077433,"source":"CELESTRAK","updated_at":"2026-09-20T09:00:43.735165Z"}}